sat.trackr.live / text

‹ back to catalog

STARLINK-36173

NORAD 67210 · 2025-304U

PAYLOAD ACTIVE UNKNOWN

§ Identity

Operator
Country
US
Launch date
2025-12-17
Launch site
AFWTR
Launch vehicle
Mass (kg)
RCS (m²)

Purposes: comms

External: N2YO · Heavens-Above · Gunter

§ Orbital elements

Epoch: 2026-05-24T23:45:36.694656Z

Period
96.11 min
Inclination
70.0019°
Eccentricity
0.0002057
Mean motion
14.98337299 rev/d
Perigee alt
570.6 km
Apogee alt
573.5 km
Semi-major
6,950.2 km
B*
1.5091e-4
RAAN
342.0786°
Arg perigee
269.7715°
Mean anomaly
90.3209°
Rev number
2,531

§ Raw data

STARLINK-361731 67210U 25304U   26144.99000804  .00001708  00000+0  15091-3 0  99912 67210  70.0019 342.0786 0002057 269.7715  90.3209 14.98337299 25315

JSON: /api/v1/satellites/67210 · /tle

For live sub-satellite position, see the globe view (requires WebGL).

§ Visibility from observer

Set your observer location to see the next 7 days of passes ≥ 10°. The values pass through the URL so the page stays shareable.

No JS? Fill the form by hand. The geolocation button needs JavaScript.